Tracking 18840 objects as of 19-November-2017
HD Live streaming from Space Station
objects crossing your sky now

IRIDIUM 124

Track IRIDIUM 124 now!
10-day predictions
IRIDIUM 124 is classified as:


NORAD ID: 42810
Int'l Code: 2017-039H
Perigee: 613.3 km
Apogee: 633.9 km
Inclination: 85.7 °
Period: 97.0 minutes
Semi major axis: 6994 km
RCS: Unknown
Launch date: June 25, 2017
Source: United States (US)
Launch site: AIR FORCE WESTERN TEST RANGE (AFWTR)
aabbcc
Your satellite tracking list
Your tracking list is empty




NASA's NSSDC Master Catalog

Two Line Element Set (TLE):
1 42810U 17039H   17323.21236673  .00000322  00000-0  35132-4 0  9996
2 42810  85.6829 210.0668 0014698  84.8432 275.4467 14.84076615 21702
Source of the keplerian elements: AFSPC